Satellite: MET-2/21 Catalog number: 22782 Epoch time: 08093.71306632 Element set: 0106 Inclination: 082.5510 deg RA of node: 171.4443 deg Eccentricity: 0.0023726 Arg of perigee: 138.8422 deg Mean anomaly: 221.4541 deg Mean motion: 13.83626973 rev/day Decay rate: -6.7e-07 rev/day^2 Epoch rev: 73669 Checksum: 297
Satellite: OKEAN-4 Catalog number: 23317 Epoch time: 08093.80512701 Element set: 0550 Inclination: 082.5412 deg RA of node: 025.4015 deg Eccentricity: 0.0023131 Arg of perigee: 019.7823 deg Mean anomaly: 340.4284 deg Mean motion: 14.82596246 rev/day Decay rate: 3.83e-06 rev/day^2 Epoch rev: 72711 Checksum: 267
Satellite: NOAA-14 Catalog number: 23455 Epoch time: 08094.17392554 Element set: 88 Inclination: 098.9497 deg RA of node: 166.3586 deg Eccentricity: 0.0009182 Arg of perigee: 002.7686 deg Mean anomaly: 357.3548 deg Mean motion: 14.13739280 rev/day Decay rate: 2.79e-06 rev/day^2 Epoch rev: 68375 Checksum: 357
Satellite: SICH-1 Catalog number: 23657 Epoch time: 08093.84370345 Element set: 346 Inclination: 082.5302 deg RA of node: 166.3422 deg Eccentricity: 0.0024415 Arg of perigee: 012.3188 deg Mean anomaly: 347.8633 deg Mean motion: 14.81565310 rev/day Decay rate: 1.89e-06 rev/day^2 Epoch rev: 67906 Checksum: 298
Satellite: NOAA-15 Catalog number: 25338 Epoch time: 08094.42189994 Element set: 413 Inclination: 098.5522 deg RA of node: 088.1917 deg Eccentricity: 0.0009619 Arg of perigee: 258.8827 deg Mean anomaly: 101.1270 deg Mean motion: 14.24693677 rev/day Decay rate: 6.7e-07 rev/day^2 Epoch rev: 51415 Checksum: 333
Satellite: RESURS Catalog number: 25394 Epoch time: 08093.93394598 Element set: 0894 Inclination: 098.3938 deg RA of node: 141.2905 deg Eccentricity: 0.0002437 Arg of perigee: 065.2338 deg Mean anomaly: 294.9094 deg Mean motion: 14.24155835 rev/day Decay rate: -2.8e-07 rev/day^2 Epoch rev: 50573 Checksum: 335
Satellite: FENGYUN1 Catalog number: 25730 Epoch time: 08094.92378419 Element set: 378 Inclination: 098.7218 deg RA of node: 073.2298 deg Eccentricity: 0.0022519 Arg of perigee: 023.1549 deg Mean anomaly: 337.0632 deg Mean motion: 14.07725498 rev/day Decay rate: 4.36e-06 rev/day^2 Epoch rev: 45851 Checksum: 325
Satellite: OKEAN-0 Catalog number: 25860 Epoch time: 08093.87666917 Element set: 0331 Inclination: 097.7479 deg RA of node: 087.7708 deg Eccentricity: 0.0001423 Arg of perigee: 100.8339 deg Mean anomaly: 259.3026 deg Mean motion: 14.73512273 rev/day Decay rate: 1.20e-06 rev/day^2 Epoch rev: 46830 Checksum: 308
Satellite: NOAA-16 Catalog number: 26536 Epoch time: 08094.40378627 Element set: 875 Inclination: 099.1526 deg RA of node: 081.9554 deg Eccentricity: 0.0011403 Arg of perigee: 076.7351 deg Mean anomaly: 283.5104 deg Mean motion: 14.12473517 rev/day Decay rate: -1.66e-06 rev/day^2 Epoch rev: 38821 Checksum: 313
Satellite: NOAA-17 Catalog number: 27453 Epoch time: 08094.28927726 Element set: 871 Inclination: 098.5403 deg RA of node: 161.0648 deg Eccentricity: 0.0011079 Arg of perigee: 330.3036 deg Mean anomaly: 029.7545 deg Mean motion: 14.23962563 rev/day Decay rate: 2.48e-06 rev/day^2 Epoch rev: 30014 Checksum: 305
Satellite: NOAA-18 Catalog number: 28654 Epoch time: 08094.17919285 Element set: 378 Inclination: 098.8616 deg RA of node: 036.0522 deg Eccentricity: 0.0014530 Arg of perigee: 162.5472 deg Mean anomaly: 197.6216 deg Mean motion: 14.11152239 rev/day Decay rate: 4.96e-06 rev/day^2 Epoch rev: 14789 Checksum: 330
/EX SB KEPS @ AMSAT $ORB08094.M Orbital Elements 08094.MISC
HR AMSAT ORBITAL ELEMENTS FOR MANNED AND MISCELLANEOUS SATELLITES FROM WA5QGD FORT WORTH,TX April 3, 2008 Send Subscribe/unsubscribe to KEPS at http://www.amsat.org/mailman/listinfo/keps BID: ORB08094.M TO ALL RADIO AMATEURS BT
Satellite: HUBBLE Catalog number: 20580 Epoch time: 08093.37877690 Element set: 0119 Inclination: 028.4681 deg RA of node: 097.6522 deg Eccentricity: 0.0003613 Arg of perigee: 297.1541 deg Mean anomaly: 062.8678 deg Mean motion: 15.00359217 rev/day Decay rate: 4.98e-06 rev/day^2 Epoch rev: 78358 Checksum: 326
Satellite: UARS Catalog number: 21701 Epoch time: 08093.58583153 Element set: 330 Inclination: 056.9729 deg RA of node: 131.1389 deg Eccentricity: 0.0089087 Arg of perigee: 038.0202 deg Mean anomaly: 322.7094 deg Mean motion: 15.51107815 rev/day Decay rate: 6.777e-05 rev/day^2 Epoch rev: 91076 Checksum: 305
Satellite: PO-34 Catalog number: 25520 Epoch time: 08093.94406368 Element set: 0969 Inclination: 028.4599 deg RA of node: 322.5211 deg Eccentricity: 0.0005812 Arg of perigee: 184.3216 deg Mean anomaly: 175.7327 deg Mean motion: 15.17165834 rev/day Decay rate: 7.89e-06 rev/day^2 Epoch rev: 52172 Checksum: 323
Satellite: ISS Catalog number: 25544 Epoch time: 08094.88701132 Element set: 242 Inclination: 051.6420 deg RA of node: 039.4115 deg Eccentricity: 0.0001148 Arg of perigee: 004.9053 deg Mean anomaly: 094.1597 deg Mean motion: 15.76951265 rev/day Decay rate: 2.5028e-04 rev/day^2 Epoch rev: 53680 Checksum: 283
Satellite: OO-38 Catalog number: 26063 Epoch time: 08093.82393509 Element set: 175 Inclination: 100.1976 deg RA of node: 154.8047 deg Eccentricity: 0.0037199 Arg of perigee: 062.2289 deg Mean anomaly: 298.2658 deg Mean motion: 14.35831220 rev/day Decay rate: -1.1e-07 rev/day^2 Epoch rev: 42875 Checksum: 320
Satellite: UWE-1 Catalog number: 28892 Epoch time: 08093.60867880 Element set: 0014 Inclination: 098.1038 deg RA of node: 349.0241 deg Eccentricity: 0.0016424 Arg of perigee: 287.6686 deg Mean anomaly: 072.2713 deg Mean motion: 14.59610784 rev/day Decay rate: 1.85e-06 rev/day^2 Epoch rev: 12957 Checksum: 325
Satellite: CO-58 Catalog number: 28895 Epoch time: 08093.37305025 Element set: 0987 Inclination: 098.1067 deg RA of node: 349.1207 deg Eccentricity: 0.0016961 Arg of perigee: 288.1253 deg Mean anomaly: 071.8120 deg Mean motion: 14.59651821 rev/day Decay rate: 1.40e-06 rev/day^2 Epoch rev: 12942 Checksum: 317
Satellite: NCUBE2 Catalog number: 28897 Epoch time: 08093.68910669 Element set: 517 Inclination: 098.1039 deg RA of node: 349.3651 deg Eccentricity: 0.0016431 Arg of perigee: 288.5087 deg Mean anomaly: 071.4359 deg Mean motion: 14.59821438 rev/day Decay rate: 2.03e-06 rev/day^2 Epoch rev: 12175 Checksum: 332
Satellite: FCAL Catalog number: 29667 Epoch time: 08094.69669429 Element set: 876 Inclination: 051.6283 deg RA of node: 348.9330 deg Eccentricity: 0.0005998 Arg of perigee: 071.6444 deg Mean anomaly: 288.4967 deg Mean motion: 16.09501115 rev/day Decay rate: 1.13275e-03 rev/day^2 Epoch rev: 7454 Checksum: 353
Satellite: FALCON Catalog number: 30776 Epoch time: 08094.57634261 Element set: 282 Inclination: 035.4338 deg RA of node: 245.9765 deg Eccentricity: 0.0000788 Arg of perigee: 008.2032 deg Mean anomaly: 351.8695 deg Mean motion: 15.02941259 rev/day Decay rate: 9.07e-06 rev/day^2 Epoch rev: 5891 Checksum: 315
Satellite: MAST Catalog number: 31126 Epoch time: 08093.71937313 Element set: 0295 Inclination: 098.0437 deg RA of node: 161.1480 deg Eccentricity: 0.0094313 Arg of perigee: 205.3165 deg Mean anomaly: 154.3371 deg Mean motion: 14.53410769 rev/day Decay rate: -7.0e-08 rev/day^2 Epoch rev: 05105 Checksum: 271
Satellite: CAPE1 Catalog number: 31130 Epoch time: 08094.76577504 Element set: 274 Inclination: 098.0416 deg RA of node: 161.3340 deg Eccentricity: 0.0102458 Arg of perigee: 204.4316 deg Mean anomaly: 155.1987 deg Mean motion: 14.51946443 rev/day Decay rate: -1.7e-07 rev/day^2 Epoch rev: 5092 Checksum: 282
/EX